Showing default

ORBCOMM FM 13, 25420

Orbit data source: Space-Track

ORBCOMM FM 13, 25420 is a payload satellite owned by Orbcomm (US) in LEO that was launched on Sun, 02 Aug 1998 UTC via a PEGASUS XL/HAPS launch vehicle from the Pegasus Launch, Eastern Range Air Space (ERAS). Payload-class satellites include a variety of spacecraft equipped with specific instruments for various scientific and technological missions. These include communications satellites like Starlink; space stations such as the ISS; scientific satellites like the Hubble; Earth observation satellites from companies like Planet Labs, Umbra, and HawkEye 360; GPS; miniature CubeSats for education and research; and military/defense satellites.

Loading next visibility...
Identifier
25420, 1998-046H
Orbit
LEO
Country
Flag of USUS / ORB
Related business
Manufacturer
OSC-Germantown
Mission
Non-operational Commercial Communications
Bus & Motor
MICROSTAR, Unknown motor
Mass
42 kg wet, 42 kg dry
Launch date (UTC)
1998-08-02 (27 years ago)
Launch vehicle
PEGASUS XL/HAPS
Launch site
Pegasus Launch, Eastern Range Air Space (ERAS)
Object type
Payload
Rocket body
Debris
Shape & HBR
Cyl + 2 Pan, 2.1 m
Radar Cross Section
1.484 m², Medium (>0.1 m² and < 1m²)

Expand to show TLE details & history
Last TLE update: 8 hours ago

TLE from 8 hours ago
0 ORBCOMM FM 13
1 25420U 98046H   25243.54552026  .00002013  00000-0  70821-3 0  9992
2 25420  44.9965 187.0368 0006956 303.7730  56.2455 14.37816956414088
Epoch: 2025-08-31T13:05Z
TLE epoch observation values (Epoch: 2025-08-31T13:05:32.95Z)
Latitude
-0.00003°
Longitude
10.68556°
Altitude
762.96 km
Speed
7.476 km/s
True Right ascension
12h 28m 08s
True Declination
0° 00' 00"
Sunlit
Object was in daylight at epoch
Visualization orbit readout
Latitude
Unknown
Longitude
Unknown
Altitude
Unknown
Speed
Unknown
Apparent Right ascension
Unknown
Apparent Declination
Unknown
Sunlit
N/A
Visualization observer readout
Local Sidereal Time
12:34:21
Azimuth
Unknown
Elevation
Unknown
Doppler factor
Unknown
Orbital elements
Apogee altitude
772.237 km
Perigee altitude
762.296 km
Semi-major axis
7,145.404 km
Eccentricity
0.0007
Inclination
44.9965°
RAAN
187.0368°
Arg. of periapsis
303.773°
True anomaly
56.3118°
Mean anomaly
56.2455°
Eccentric anomaly
56.27865°
Mean motion
3.59338 °/min
Orbital period
100.18 mins
BSTAR
0.00070821
Loading maneuver chart data...
Computing Atmospheric mass density...

Documentation

Showing up to 5 results
|